Location: B�rgermoos
(47.6500°N, 9.0667°E)
Time: 09:21:57
(UTC+00:00)

A-11 Canister half - Pass Details

Date: 03 August 2021
Orbit: 1526 x 1683 km, 47.3° (Epoch: 20 September)

Event Time Altitude Azimuth Distance (km) Brightness Sun altitude
Rises 15:38:27 0° 289° (WNW) 4,911 12.5 31.4°
Reaches altitude 10° 15:41:42 10° 286° (WNW) 3,906 12.3 30.8°
Maximum altitude 15:51:20 57° 211° (SSW) 1,866 10.3 29.2°
Drops below altitude 10° 16:00:38 10° 137° (SE) 3,776 10.8 27.7°
Sets 16:03:43 0° 133° (SE) 4,738 11.2 27.1°
